Weather History for Philadelphia Wings Airport, PA

Change the Weather History Date:

Sunday, December 9, 2012

  Actual Average (KPNE) Record (KPNE)
Temperature  
Mean Temperature 44 °F -  
Max Temperature 48 °F 45 °F 63 °F (2008)
Min Temperature 41 °F 31 °F 18 °F (2002)
Degree Days  
Heating Degree Days 20    
Moisture  
Dew Point 43 °F    
Average Humidity 94    
Maximum Humidity 100    
Minimum Humidity 87    
Precipitation  
Precipitation 0.29 in - - ()
Sea Level Pressure  
Sea Level Pressure 30.12 in    
Wind  
Wind Speed 2 mph (NE)    
Max Wind Speed 13 mph    
Max Gust Speed 17 mph    
Visibility 4 miles    
Events      
Averages and records for this station are not official NWS values.
T = Trace of Precipitation, MM = Missing Value Source: NWS Daily Summary

Daily Weather History Graph

Daily Weather History Graph

Search for Another Location

Airport:

Trip Planner

Search our weather history database for the weather conditions in past years. The results will help you decide how hot, cold, wet, or windy it might be!

Date:

Astronomy

Dec. 09, 2012 Rise Set
Actual Time 7:11 AM EST 4:35 PM EST
Civil Twilight 6:41 AM EST 5:05 PM EST
Nautical Twilight 6:07 AM EST 5:39 PM EST
Astronomical Twilight 5:34 AM EST 6:12 PM EST
Moon 2:41 AM EST (12/9) 1:40 PM EST (12/9)
Length of Visible Light 10h 24m
Length of Day
9h 23m
Waning Crescent, 19% of the Moon is Illuminated
Dec 9
Waning Crescent
Dec 13
New
Dec 20
First Quarter
Dec 28
Full
Jan 4
Last Quarter

Hourly Weather History & Observations

Time (EST) Temp. Windchill Dew Point Humidity Pressure Visibility Wind Dir Wind Speed Gust Speed Precip Events Conditions
12:15 AM 48.2 °F - 46.4 °F 93% 30.02 in 2.0 mi Calm Calm - N/A   Unknown
12:35 AM 48.2 °F - 46.4 °F 93% 30.02 in 2.5 mi Calm Calm - N/A   Overcast
12:55 AM 48.2 °F - 46.4 °F 93% 30.02 in 3.0 mi Calm Calm - N/A   Overcast
1:15 AM 48.2 °F - 46.4 °F 93% 30.03 in 2.5 mi Calm Calm - N/A   Overcast
1:35 AM 48.2 °F - 46.4 °F 93% 30.04 in 2.0 mi Calm Calm - N/A   Overcast
2:15 AM 48.2 °F - 46.4 °F 93% 30.05 in 0.8 mi Calm Calm - N/A   Overcast
2:35 AM 48.2 °F - 46.4 °F 93% 30.05 in 0.8 mi Calm Calm - N/A   Overcast
2:55 AM 48.2 °F - 46.4 °F 93% 30.06 in 1.2 mi Calm Calm - N/A   Overcast
3:15 AM 48.2 °F - 46.4 °F 93% 30.06 in 1.2 mi Calm Calm - N/A   Overcast
3:35 AM 48.2 °F - 46.4 °F 93% 30.07 in 0.2 mi Calm Calm - N/A   Overcast
3:55 AM 46.4 °F - 46.4 °F 100% 30.07 in 0.2 mi Calm Calm - N/A   Overcast
4:15 AM 46.4 °F - 46.4 °F 100% 30.08 in 0.2 mi Calm Calm - N/A   Overcast
4:35 AM 46.4 °F - 44.6 °F 93% 30.08 in 0.2 mi Calm Calm - N/A   Overcast
4:55 AM 46.4 °F - 44.6 °F 93% 30.08 in 0.2 mi Calm Calm - N/A   Overcast
5:15 AM 44.6 °F - 44.6 °F 100% 30.10 in 0.2 mi Calm Calm - N/A   Overcast
5:35 AM 44.6 °F - 42.8 °F 93% 30.12 in 0.2 mi Calm Calm - N/A   Overcast
5:55 AM 42.8 °F - 42.8 °F 100% 30.13 in 0.2 mi Calm Calm - N/A   Overcast
6:15 AM 42.8 °F - 42.8 °F 100% 30.15 in 0.2 mi Calm Calm - N/A   Overcast
6:35 AM 44.6 °F - 42.8 °F 93% 30.16 in 2.5 mi Calm Calm - N/A   Overcast
6:55 AM 46.4 °F 44.3 °F 44.6 °F 93% 30.17 in 4.0 mi NE 4.6 mph - N/A   Mostly Cloudy
7:15 AM 44.6 °F 42.2 °F 44.6 °F 100% 30.16 in 7.0 mi NNE 4.6 mph - N/A   Mostly Cloudy
7:35 AM 44.6 °F 42.2 °F 44.6 °F 100% 30.18 in 7.0 mi NE 4.6 mph - N/A   Scattered Clouds
7:55 AM 44.6 °F 42.2 °F 44.6 °F 100% 30.18 in 10.0 mi NE 4.6 mph - N/A   Mostly Cloudy
8:15 AM 44.6 °F 43.1 °F 42.8 °F 93% 30.19 in 10.0 mi North 3.5 mph - N/A   Overcast
8:35 AM 46.4 °F - 42.8 °F 87% 30.21 in 10.0 mi Calm Calm - 0.01 in   Overcast
8:55 AM 46.4 °F 44.3 °F 42.8 °F 87% 30.21 in 10.0 mi NE 4.6 mph - 0.01 in   Overcast
9:15 AM 46.4 °F 45.2 °F 42.8 °F 87% 30.21 in 10.0 mi NE 3.5 mph - 0.01 in   Overcast
9:35 AM 46.4 °F - 42.8 °F 87% 30.22 in 10.0 mi Calm Calm - 0.01 in   Overcast
9:55 AM 46.4 °F 45.2 °F 42.8 °F 87% 30.23 in 10.0 mi NE 3.5 mph - 0.02 in   Overcast
10:15 AM 44.6 °F - 42.8 °F 93% 30.23 in 7.0 mi Calm Calm - 0.01 in   Overcast
10:35 AM 44.6 °F 43.1 °F 42.8 °F 93% 30.22 in 10.0 mi NE 3.5 mph - 0.02 in   Overcast
10:55 AM 44.6 °F 41.4 °F 42.8 °F 93% 30.21 in 10.0 mi NE 5.8 mph - 0.02 in   Overcast
11:15 AM 44.6 °F 42.2 °F 42.8 °F 93% 30.20 in 10.0 mi ENE 4.6 mph - 0.01 in   Overcast
11:35 AM 44.6 °F 43.1 °F 42.8 °F 93% 30.19 in 7.0 mi NE 3.5 mph - 0.03 in   Overcast
11:55 AM 44.6 °F 42.2 °F 42.8 °F 93% 30.19 in 7.0 mi NE 4.6 mph - 0.04 in   Overcast
12:15 PM 44.6 °F 42.2 °F 42.8 °F 93% 30.18 in 5.0 mi NE 4.6 mph - 0.02 in   Overcast
12:35 PM 44.6 °F 43.1 °F 42.8 °F 93% 30.18 in 5.0 mi NE 3.5 mph - 0.03 in   Overcast
12:55 PM 44.6 °F 41.4 °F 42.8 °F 93% 30.16 in 7.0 mi NE 5.8 mph - 0.03 in   Overcast
1:15 PM 44.6 °F 41.4 °F 42.8 °F 93% 30.16 in 5.0 mi ENE 5.8 mph - N/A   Overcast
1:35 PM 44.6 °F 40.7 °F 42.8 °F 93% 30.16 in 5.0 mi ENE 6.9 mph - N/A   Overcast
1:55 PM 44.6 °F 40.2 °F 42.8 °F 93% 30.16 in 2.5 mi NE 8.1 mph - 0.01 in   Overcast
2:15 PM 44.6 °F 40.2 °F 42.8 °F 93% 30.15 in 5.0 mi NE 8.1 mph - N/A   Overcast
2:35 PM 44.6 °F 38.4 °F 42.8 °F 93% 30.16 in 4.0 mi East 12.7 mph 17.3 mph 0.01 in   Overcast
2:55 PM 42.8 °F 38.0 °F 39.2 °F 87% 30.16 in 5.0 mi East 8.1 mph - 0.02 in   Overcast
3:15 PM 42.8 °F 37.0 °F 41.0 °F 93% 30.16 in 4.0 mi ENE 10.4 mph - 0.02 in   Overcast
3:35 PM 42.8 °F 37.5 °F 41.0 °F 93% 30.16 in 7.0 mi East 9.2 mph - 0.03 in   Overcast
3:55 PM 42.8 °F - 41.0 °F 93% 30.17 in 7.0 mi Calm Calm - 0.03 in   Overcast
4:15 PM 42.8 °F 40.1 °F 41.0 °F 93% 30.18 in 10.0 mi ENE 4.6 mph - N/A   Overcast
4:35 PM 42.8 °F 41.1 °F 41.0 °F 93% 30.17 in 10.0 mi ENE 3.5 mph - N/A   Overcast
4:55 PM 42.8 °F 38.6 °F 41.0 °F 93% 30.16 in 10.0 mi ENE 6.9 mph - N/A   Overcast
5:15 PM 42.8 °F 39.3 °F 41.0 °F 93% 30.16 in 7.0 mi ENE 5.8 mph - N/A   Overcast
5:35 PM 42.8 °F 39.3 °F 41.0 °F 93% 30.16 in 5.0 mi ENE 5.8 mph - N/A   Overcast
5:55 PM 42.8 °F 39.3 °F 41.0 °F 93% 30.16 in 2.0 mi ENE 5.8 mph - N/A   Overcast
6:15 PM 42.8 °F 40.1 °F 41.0 °F 93% 30.15 in 2.0 mi NE 4.6 mph - N/A   Overcast
6:35 PM 41.0 °F 37.1 °F 41.0 °F 100% 30.13 in 2.0 mi ENE 5.8 mph - N/A   Overcast
6:55 PM 41.0 °F 39.0 °F 41.0 °F 100% 30.15 in 2.0 mi NE 3.5 mph - N/A   Overcast
7:15 PM 42.8 °F 37.5 °F 41.0 °F 93% 30.12 in 2.5 mi ENE 9.2 mph - 0.03 in   Overcast
7:35 PM 42.8 °F 38.0 °F 41.0 °F 93% 30.11 in 4.0 mi ENE 8.1 mph - 0.05 in   Overcast
7:55 PM 42.8 °F 38.0 °F 41.0 °F 93% 30.10 in 5.0 mi ENE 8.1 mph - 0.05 in   Overcast
8:15 PM 42.8 °F 40.1 °F 41.0 °F 93% 30.09 in 5.0 mi ENE 4.6 mph - N/A   Overcast
8:35 PM 42.8 °F 38.0 °F 41.0 °F 93% 30.07 in 3.0 mi ENE 8.1 mph - N/A   Overcast
8:55 PM 42.8 °F 38.6 °F 41.0 °F 93% 30.06 in 3.0 mi ENE 6.9 mph - N/A   Overcast
9:15 PM 42.8 °F - 42.8 °F 100% 30.05 in 3.0 mi Calm Calm - N/A   Overcast
9:35 PM 42.8 °F 38.6 °F 42.8 °F 100% 30.08 in 2.5 mi NW 6.9 mph - 0.01 in   Overcast
9:55 PM 42.8 °F - 41.0 °F 93% 30.04 in 3.0 mi Calm Calm - 0.05 in   Overcast
10:15 PM 42.8 °F - 41.0 °F 93% 30.04 in 2.5 mi Calm Calm - 0.01 in   Overcast
10:35 PM 42.8 °F - 41.0 °F 93% 30.03 in 4.0 mi Calm Calm - 0.01 in   Overcast
10:55 PM 42.8 °F - 41.0 °F 93% 30.03 in 5.0 mi Calm Calm - 0.01 in   Overcast
11:15 PM 42.8 °F - 41.0 °F 93% 30.01 in 3.0 mi Calm Calm - N/A   Overcast
11:35 PM 42.8 °F - 41.0 °F 93% 30.00 in 2.5 mi Calm Calm - N/A   Overcast
11:55 PM 42.8 °F - 41.0 °F 93% 29.98 in 4.0 mi Calm Calm - N/A   Overcast